Niagara Falls, NY

9:42 AM EST on January 16, 2018 (GMT -0500)
Niagara Falls International

Weather History for KIAG - April, 2013

Change the Weather History Date:

Tuesday, April 23, 2013

  Actual Average Record
Temperature  
Mean Temperature 52 °F -  
Max Temperature 66 °F 56 °F 82 °F (2001)
Min Temperature 41 °F 35 °F 24 °F (2002)
Degree Days  
Heating Degree Days 12    
Growing Degree Days 2 (Base 50)    
Moisture  
Dew Point 31 °F    
Average Humidity 46    
Maximum Humidity 61    
Minimum Humidity 25    
Precipitation  
Precipitation 0.00 in - - ()
Sea Level Pressure  
Sea Level Pressure 30.15 in    
Wind  
Wind Speed 7 mph (SSE)    
Max Wind Speed 13 mph    
Max Gust Speed -    
Visibility 10 miles    
Events      
Averages and records for this station are not official NWS values.
T = Trace of Precipitation, MM = Missing Value Source: NWS Daily Summary

Daily Weather History Graph

Daily Weather History Graph

Search for Another Location

Airport or City:

Trip Planner

Search our weather history database for the weather conditions in past years. The results will help you decide how hot, cold, wet, or windy it might be!

Date:

Astronomy

Apr. 23, 2013 Rise Set
Actual Time 6:20 AM EDT 8:08 PM EDT
Civil Twilight 5:50 AM EDT 8:38 PM EDT
Nautical Twilight 5:13 AM EDT 9:15 PM EDT
Astronomical Twilight 4:33 AM EDT 9:55 PM EDT
Moon 5:58 PM EDT (4/23) 4:51 AM EDT (4/23)
Length of Visible Light 14h 48m
Length of Day
13h 47m
Waxing Gibbous, 94% of the Moon is Illuminated
Apr 23
Waxing Gibbous
Apr 25
Full
May 2
Last Quarter
May 9
New
May 18
First Quarter

Hourly Weather History & Observations

Time (EDT) Temp. Windchill Dew Point Humidity Pressure Visibility Wind Dir Wind Speed Gust Speed Precip Events Conditions
12:53 AM 46.0 °F 43.9 °F 23.0 °F 40% 30.31 in 10.0 mi South 4.6 mph - N/A   Clear
1:53 AM 48.0 °F - 25.0 °F 41% 30.30 in 10.0 mi South 8.1 mph - N/A   Clear
2:53 AM 45.0 °F 40.6 °F 26.1 °F 48% 30.30 in 10.0 mi SSE 8.1 mph - N/A   Clear
3:53 AM 45.0 °F 40.1 °F 28.0 °F 52% 30.30 in 10.0 mi SSE 9.2 mph - N/A   Clear
4:53 AM 44.1 °F 40.1 °F 28.9 °F 55% 30.28 in 10.0 mi South 6.9 mph - N/A   Clear
5:53 AM 41.0 °F 37.1 °F 28.4 °F 61% 30.25 in 10.0 mi South 5.8 mph - N/A   Clear
6:53 AM 42.1 °F 37.7 °F 28.9 °F 60% 30.27 in 10.0 mi SSE 6.9 mph - N/A   Clear
7:01 AM 42.8 °F 38.6 °F 28.4 °F 57% 30.25 in 10.0 mi SSE 6.9 mph - N/A   Clear
7:53 AM 45.0 °F 40.6 °F 28.0 °F 52% 30.27 in 10.0 mi SSE 8.1 mph - N/A   Clear
8:53 AM 46.0 °F 41.4 °F 28.0 °F 50% 30.25 in 10.0 mi South 9.2 mph - N/A   Partly Cloudy
9:53 AM 48.9 °F - 28.9 °F 46% 30.23 in 10.0 mi South 6.9 mph - N/A   Partly Cloudy
10:53 AM 51.1 °F - 28.0 °F 41% 30.22 in 10.0 mi SSW 3.5 mph - N/A   Partly Cloudy
11:53 AM 55.0 °F - 28.9 °F 37% 30.19 in 10.0 mi ENE 4.6 mph - N/A   Scattered Clouds
12:53 PM 55.9 °F - 27.0 °F 33% 30.21 in 10.0 mi West 5.8 mph - N/A   Mostly Cloudy
1:53 PM 59.0 °F - 35.1 °F 41% 30.12 in 10.0 mi NE 12.7 mph - N/A   Mostly Cloudy
2:53 PM 62.1 °F - 30.0 °F 30% 30.10 in 10.0 mi Variable 3.5 mph - N/A   Scattered Clouds
3:53 PM 63.0 °F - 26.1 °F 25% 30.07 in 10.0 mi Variable 5.8 mph - N/A   Scattered Clouds
4:53 PM 64.9 °F - 30.0 °F 27% 30.04 in 10.0 mi WSW 3.5 mph - N/A   Scattered Clouds
5:53 PM 64.9 °F - 32.0 °F 29% 30.02 in 10.0 mi South 5.8 mph - N/A   Mostly Cloudy
6:53 PM 61.0 °F - 41.0 °F 48% 30.00 in 10.0 mi NE 10.4 mph - N/A   Mostly Cloudy
7:53 PM 57.0 °F - 42.1 °F 57% 29.99 in 10.0 mi ENE 4.6 mph - N/A   Mostly Cloudy
8:53 PM 55.0 °F - 39.9 °F 57% 29.98 in 10.0 mi East 4.6 mph - N/A   Mostly Cloudy
9:53 PM 53.1 °F - 37.9 °F 57% 29.95 in 10.0 mi East 6.9 mph - N/A   Mostly Cloudy
10:53 PM 54.0 °F - 37.0 °F 53% 29.93 in 10.0 mi ESE 6.9 mph - N/A   Overcast
11:53 PM 55.9 °F - 34.0 °F 44% 29.90 in 10.0 mi South 8.1 mph - N/A   Clear